Tracking 31027 objects as of 19-Jul-2025
HD Live streaming from Space Station
objects crossing your sky now

COSMOS 2251 DEB

Track COSMOS 2251 DEB now!
10-day predictions


NORAD ID: 33944
Int'l Code: 1993-036EZ
Perigee: 693.7 km
Apogee: 857.7 km
Inclination: 74.0 °
Period: 100.2 minutes
Semi major axis: 7146 km
RCS: 0.0636 m2 (small)
Launch date: June 16, 1993
Source: Commonwealth of Independent States (former USSR) (CIS)
Launch site: PLESETSK MISSILE AND SPACE COMPLEX (PKMTR)

Note: This is SATELLITE DEBRIS
Your satellite tracking list
STARLINK-2062
Track 1 satellite(s)




NASA's NSSDC Master Catalog

Two Line Element Set (TLE):
1 33944U 93036EZ  25199.53586444  .00000545  00000-0  17948-3 0  9995
2 33944  74.0379 219.6579 0114721 355.1932 123.2414 14.36958775859136
Source of the keplerian elements: AFSPC